THY6AE LTFM-LTAC

Flight info

Callsign THY6AE
Flight time 0h 49m
Altitude 25000
Route VICEN T380 ASMAP L333 LATGA
Aircraft B738/M-SDE3FGHIRWY/LB1

Departure

Time 2026-02-21 06:39
Airport İstanbul Airport (LTFM)

Arrival

Time 2026-02-21 07:28
Airport Esenboğa International Airport (LTAC)
Time Latitude Longitude Altitude Speed Heading
2026-02-21 05:38 41.26164 28.73614 309 ft 0 kts 107°
2026-02-21 06:13 41.26168 28.73595 333 ft 3 kts 107°
2026-02-21 06:13 41.26170 28.73586 332 ft 0 kts 107°
2026-02-21 06:14 41.26171 28.73585 332 ft 2 kts 107°
2026-02-21 06:15 41.26170 28.73562 333 ft 3 kts 63°
2026-02-21 06:15 41.26160 28.73547 332 ft 1 kts 32°
2026-02-21 06:31 41.26161 28.73547 336 ft 1 kts 32°
2026-02-21 06:31 41.26164 28.73549 336 ft 0 kts 15°
2026-02-21 06:32 41.26165 28.73548 336 ft 0 kts 358°
2026-02-21 06:32 41.26170 28.73542 333 ft 2 kts 319°
2026-02-21 06:32 41.26183 28.73527 335 ft 3 kts 317°
2026-02-21 06:32 41.26200 28.73501 335 ft 4 kts 306°
2026-02-21 06:33 41.26212 28.73461 334 ft 5 kts 284°
2026-02-21 06:33 41.26215 28.73406 336 ft 6 kts 270°
2026-02-21 06:33 41.26214 28.73341 336 ft 8 kts 268°
2026-02-21 06:33 41.26211 28.73265 336 ft 8 kts 268°
2026-02-21 06:34 41.26211 28.73187 336 ft 9 kts 270°
2026-02-21 06:34 41.26211 28.73100 336 ft 10 kts 271°
2026-02-21 06:34 41.26212 28.73003 336 ft 11 kts 270°
2026-02-21 06:34 41.26212 28.72943 336 ft 0 kts 270°
2026-02-21 06:35 41.26212 28.72933 336 ft 2 kts 269°
2026-02-21 06:35 41.26211 28.72903 336 ft 4 kts 269°
2026-02-21 06:35 41.26210 28.72859 336 ft 5 kts 267°
2026-02-21 06:35 41.26208 28.72803 333 ft 7 kts 268°
2026-02-21 06:36 41.26207 28.72735 335 ft 8 kts 270°
2026-02-21 06:36 41.26207 28.72656 336 ft 9 kts 270°
2026-02-21 06:36 41.26209 28.72569 336 ft 10 kts 277°
2026-02-21 06:36 41.26250 28.72521 336 ft 0 kts 356°
2026-02-21 06:37 41.26254 28.72521 336 ft 1 kts 356°
2026-02-21 06:37 41.26266 28.72519 333 ft 2 kts 356°
2026-02-21 06:37 41.26288 28.72517 335 ft 4 kts 355°
2026-02-21 06:37 41.26319 28.72514 334 ft 5 kts 356°
2026-02-21 06:38 41.26363 28.72513 335 ft 14 kts 359°
2026-02-21 06:38 41.26690 28.72503 335 ft 80 kts 358°
2026-02-21 06:38 41.27451 28.72482 334 ft 137 kts 359°
2026-02-21 06:38 41.28558 28.72413 475 ft 172 kts 352°
2026-02-21 06:39 41.29746 28.72213 1192 ft 173 kts 356°
2026-02-21 06:39 41.30974 28.72220 1848 ft 183 kts
2026-02-21 06:39 41.32325 28.72320 2322 ft 206 kts
2026-02-21 06:39 41.33840 28.72398 2787 ft 230 kts
2026-02-21 06:40 41.35510 28.72333 3355 ft 253 kts 348°
2026-02-21 06:40 41.37115 28.71228 3956 ft 273 kts 315°
2026-02-21 06:40 41.38080 28.69046 4799 ft 275 kts 281°
2026-02-21 06:40 41.38176 28.66551 5729 ft 276 kts 265°
2026-02-21 06:41 41.38132 28.63970 6616 ft 280 kts 267°
2026-02-21 06:41 41.38099 28.61372 7507 ft 282 kts 266°
2026-02-21 06:41 41.37711 28.58840 8387 ft 278 kts 242°
2026-02-21 06:41 41.36556 28.56821 9259 ft 276 kts 217°
2026-02-21 06:42 41.34868 28.55638 10091 ft 276 kts 194°
2026-02-21 06:42 41.32930 28.55317 10579 ft 290 kts 181°
2026-02-21 06:42 41.30838 28.55276 10891 ft 310 kts 180°
2026-02-21 06:42 41.28611 28.55273 11165 ft 330 kts 180°
2026-02-21 06:43 41.26269 28.55464 11527 ft 346 kts 167°
2026-02-21 06:43 41.24080 28.56749 12375 ft 344 kts 146°
2026-02-21 06:43 41.22268 28.58836 13203 ft 348 kts 139°
2026-02-21 06:43 41.20478 28.61064 13815 ft 354 kts 139°
2026-02-21 06:44 41.18690 28.63316 14468 ft 356 kts 139°
2026-02-21 06:44 41.16886 28.65605 15066 ft 360 kts 139°
2026-02-21 06:44 41.15070 28.67918 15673 ft 363 kts 139°
2026-02-21 06:44 41.13246 28.70255 16251 ft 367 kts 137°
2026-02-21 06:45 41.11705 28.72985 16858 ft 372 kts 126°
2026-02-21 06:45 41.10276 28.75869 17399 ft 377 kts 126°
2026-02-21 06:45 41.08832 28.78791 17977 ft 380 kts 126°
2026-02-21 06:45 41.07381 28.81734 18513 ft 383 kts 126°
2026-02-21 06:46 41.05920 28.84703 18998 ft 385 kts 126°
2026-02-21 06:46 41.04450 28.87686 19489 ft 388 kts 126°
2026-02-21 06:46 41.02987 28.90653 19988 ft 390 kts 126°
2026-02-21 06:46 41.01347 28.93490 20456 ft 388 kts 138°
2026-02-21 06:47 40.99418 28.96004 20923 ft 390 kts 138°
2026-02-21 06:47 40.97490 28.98536 21396 ft 392 kts 139°
2026-02-21 06:47 40.95546 29.01074 21871 ft 394 kts 139°
2026-02-21 06:47 40.93582 29.03630 22329 ft 396 kts 139°
2026-02-21 06:48 40.91612 29.06189 22785 ft 398 kts 139°
2026-02-21 06:48 40.89632 29.08760 23233 ft 400 kts 139°
2026-02-21 06:48 40.87666 29.11309 23660 ft 402 kts 139°
2026-02-21 06:48 40.85690 29.14014 24011 ft 408 kts 131°
2026-02-21 06:49 40.84289 29.17255 24402 ft 417 kts 115°
2026-02-21 06:49 40.83431 29.20944 24715 ft 423 kts 110°
2026-02-21 06:49 40.82635 29.24712 25007 ft 427 kts 110°
2026-02-21 06:49 40.81853 29.28523 25073 ft 429 kts 110°
2026-02-21 06:50 40.81089 29.32316 25071 ft 428 kts 110°
2026-02-21 06:50 40.80329 29.36121 25072 ft 427 kts 110°
2026-02-21 06:50 40.79573 29.39914 25075 ft 427 kts 110°
2026-02-21 06:50 40.78818 29.43698 25078 ft 427 kts 110°
2026-02-21 06:51 40.78060 29.47493 25063 ft 427 kts 110°
2026-02-21 06:51 40.77301 29.51287 25067 ft 427 kts 110°
2026-02-21 06:51 40.76540 29.55080 25055 ft 427 kts 110°
2026-02-21 06:51 40.75779 29.58870 25066 ft 427 kts 110°
2026-02-21 06:52 40.75018 29.62652 25070 ft 428 kts 110°
2026-02-21 06:52 40.74262 29.66400 25068 ft 428 kts 110°
2026-02-21 06:52 40.73558 29.70226 25062 ft 432 kts 103°
2026-02-21 06:52 40.73418 29.74202 25088 ft 437 kts 96°
2026-02-21 06:53 40.73328 29.78224 25068 ft 437 kts 97°
2026-02-21 06:53 40.73244 29.82228 25071 ft 437 kts 97°
2026-02-21 06:53 40.73167 29.86244 25059 ft 438 kts 97°
2026-02-21 06:53 40.73091 29.90262 25077 ft 438 kts 97°
2026-02-21 06:54 40.73014 29.94285 25071 ft 438 kts 97°
2026-02-21 06:54 40.72937 29.98300 25079 ft 438 kts 97°
2026-02-21 06:54 40.72859 30.02269 25103 ft 438 kts 97°
2026-02-21 06:54 40.72651 30.06256 25082 ft 431 kts 108°
2026-02-21 06:55 40.71794 30.09986 25124 ft 425 kts 114°
2026-02-21 06:55 40.70866 30.13687 25067 ft 425 kts 115°
2026-02-21 06:55 40.69917 30.17386 25102 ft 425 kts 115°
2026-02-21 06:55 40.68957 30.21064 25102 ft 425 kts 115°
2026-02-21 06:56 40.67984 30.24753 25092 ft 425 kts 115°
2026-02-21 06:56 40.67012 30.28433 25093 ft 426 kts 114°
2026-02-21 06:56 40.66407 30.32279 25089 ft 435 kts 101°
2026-02-21 06:56 40.66087 30.36245 25097 ft 435 kts 103°
2026-02-21 06:57 40.65745 30.40202 25061 ft 435 kts 103°
2026-02-21 06:57 40.65411 30.44180 25071 ft 437 kts 102°
2026-02-21 06:57 40.65078 30.48166 25067 ft 437 kts 102°
2026-02-21 06:57 40.64750 30.52096 25071 ft 438 kts 102°
2026-02-21 06:58 40.64414 30.56089 25080 ft 438 kts 102°
2026-02-21 06:58 40.63742 30.64052 25088 ft 438 kts 102°
2026-02-21 06:58 40.63404 30.68037 25090 ft 438 kts 103°
2026-02-21 06:59 40.62953 30.71979 25075 ft 430 kts 111°
2026-02-21 06:59 40.62155 30.75766 25104 ft 430 kts 112°
2026-02-21 06:59 40.61362 30.79562 25082 ft 430 kts 112°
2026-02-21 06:59 40.60564 30.83350 25094 ft 430 kts 112°
2026-02-21 07:00 40.59759 30.87153 25078 ft 430 kts 112°
2026-02-21 07:00 40.58958 30.90935 25094 ft 430 kts 112°
2026-02-21 07:00 40.58155 30.94719 25094 ft 430 kts 112°
2026-02-21 07:00 40.57346 30.98516 25058 ft 430 kts 112°
2026-02-21 07:01 40.56538 31.02308 25093 ft 431 kts 112°
2026-02-21 07:01 40.55737 31.06064 25090 ft 432 kts 112°
2026-02-21 07:01 40.54925 31.09858 25101 ft 431 kts 112°
2026-02-21 07:01 40.54110 31.13664 25117 ft 431 kts 112°
2026-02-21 07:02 40.53296 31.17456 25075 ft 431 kts 112°
2026-02-21 07:02 40.52481 31.21245 25105 ft 431 kts 112°
2026-02-21 07:02 40.51661 31.25043 25074 ft 431 kts 112°
2026-02-21 07:02 40.50842 31.28833 25092 ft 432 kts 112°
2026-02-21 07:03 40.50018 31.32642 25105 ft 432 kts 112°
2026-02-21 07:03 40.49194 31.36438 25105 ft 432 kts 112°
2026-02-21 07:03 40.48370 31.40231 25109 ft 433 kts 112°
2026-02-21 07:03 40.47542 31.44035 25112 ft 433 kts 112°
2026-02-21 07:04 40.46729 31.47774 25110 ft 417 kts 112°
2026-02-21 07:04 40.45949 31.51357 25133 ft 402 kts 113°
2026-02-21 07:04 40.45194 31.54819 25120 ft 388 kts 114°
2026-02-21 07:04 40.44470 31.58125 25122 ft 379 kts 114°
2026-02-21 07:05 40.43729 31.61500 25106 ft 391 kts 114°
2026-02-21 07:05 40.42966 31.64980 25111 ft 401 kts 113°
2026-02-21 07:05 40.42183 31.68547 25102 ft 412 kts 113°
2026-02-21 07:05 40.41379 31.72201 25105 ft 422 kts 113°
2026-02-21 07:06 40.40555 31.75942 25101 ft 431 kts 113°
2026-02-21 07:06 40.39710 31.79769 25098 ft 440 kts 113°
2026-02-21 07:06 40.38852 31.83648 25082 ft 446 kts 113°
2026-02-21 07:06 40.37985 31.87565 25099 ft 447 kts 113°
2026-02-21 07:07 40.37116 31.91478 25090 ft 448 kts 113°
2026-02-21 07:07 40.36241 31.95411 25112 ft 448 kts 113°
2026-02-21 07:07 40.35365 31.99319 25114 ft 448 kts 113°
2026-02-21 07:07 40.34485 32.03239 25114 ft 448 kts 113°
2026-02-21 07:08 40.33671 32.07185 25098 ft 453 kts 106°
2026-02-21 07:08 40.33555 32.11301 25110 ft 465 kts 90°
2026-02-21 07:08 40.33952 32.15531 25076 ft 469 kts 88°
2026-02-21 07:08 40.34391 32.19775 25084 ft 470 kts 88°
2026-02-21 07:09 40.34852 32.24031 25116 ft 472 kts 88°
2026-02-21 07:09 40.35328 32.28284 25103 ft 472 kts 87°
2026-02-21 07:09 40.35708 32.32549 25096 ft 465 kts 96°
2026-02-21 07:09 40.35390 32.36652 24605 ft 447 kts 109°
2026-02-21 07:10 40.34693 32.40627 23990 ft 446 kts 109°
2026-02-21 07:10 40.33975 32.44558 23498 ft 441 kts 110°
2026-02-21 07:10 40.33239 32.48452 22900 ft 438 kts 110°
2026-02-21 07:10 40.32495 32.52308 22362 ft 433 kts 110°
2026-02-21 07:11 40.31752 32.56111 21844 ft 429 kts 110°
2026-02-21 07:11 40.31015 32.59869 21434 ft 423 kts 110°
2026-02-21 07:11 40.30114 32.63472 21031 ft 407 kts 123°
2026-02-21 07:11 40.28556 32.66375 20760 ft 385 kts 141°
2026-02-21 07:12 40.26439 32.68407 20522 ft 364 kts 159°
2026-02-21 07:12 40.24133 32.69421 20307 ft 347 kts 174°
2026-02-21 07:12 40.21784 32.69854 20164 ft 336 kts 175°
2026-02-21 07:12 40.19478 32.70324 20003 ft 327 kts 174°
2026-02-21 07:13 40.17288 32.70771 19837 ft 318 kts 175°
2026-02-21 07:13 40.15131 32.71212 19700 ft 309 kts 175°
2026-02-21 07:13 40.13042 32.71638 19530 ft 300 kts 175°
2026-02-21 07:13 40.10983 32.72059 19177 ft 298 kts 175°
2026-02-21 07:14 40.09601 32.72296 18933 ft 295 kts 181°
2026-02-21 07:14 40.07559 32.72305 18566 ft 294 kts 182°
2026-02-21 07:14 40.05517 32.72328 18198 ft 293 kts 182°
2026-02-21 07:14 40.03508 32.72366 17808 ft 292 kts 181°
2026-02-21 07:15 40.01485 32.72415 17450 ft 290 kts 181°
2026-02-21 07:15 39.99468 32.72471 17071 ft 289 kts 181°
2026-02-21 07:15 39.97452 32.72529 16703 ft 288 kts 181°
2026-02-21 07:15 39.95453 32.72589 16338 ft 287 kts 181°
2026-02-21 07:16 39.93457 32.72650 15971 ft 286 kts 181°
2026-02-21 07:16 39.91470 32.72711 15607 ft 285 kts 181°
2026-02-21 07:16 39.89486 32.72772 15241 ft 284 kts 181°
2026-02-21 07:16 39.87515 32.72814 14875 ft 283 kts 181°
2026-02-21 07:17 39.85553 32.72855 14552 ft 281 kts 181°
2026-02-21 07:17 39.83629 32.72896 14402 ft 273 kts 181°
2026-02-21 07:17 39.81747 32.72925 14154 ft 268 kts 184°
2026-02-21 07:17 39.79970 32.72327 13797 ft 265 kts 208°
2026-02-21 07:18 39.78426 32.71023 13371 ft 266 kts 212°
2026-02-21 07:18 39.76900 32.69664 13010 ft 265 kts 213°
2026-02-21 07:18 39.75386 32.68290 12653 ft 264 kts 212°
2026-02-21 07:18 39.73705 32.67416 12287 ft 262 kts 186°
2026-02-21 07:19 39.71907 32.67699 11902 ft 265 kts 161°
2026-02-21 07:19 39.70364 32.69045 11523 ft 273 kts 136°
2026-02-21 07:19 39.69220 32.70991 11176 ft 276 kts 131°
2026-02-21 07:19 39.68177 32.73119 10822 ft 280 kts 115°
2026-02-21 07:20 39.67947 32.75605 10503 ft 289 kts 84°
2026-02-21 07:20 39.68738 32.78007 10175 ft 294 kts 52°
2026-02-21 07:20 39.70293 32.79717 9815 ft 295 kts 34°
2026-02-21 07:20 39.71982 32.81237 9479 ft 294 kts 36°
2026-02-21 07:21 39.73638 32.82770 9180 ft 292 kts 37°
2026-02-21 07:21 39.75279 32.84308 8877 ft 289 kts 37°
2026-02-21 07:21 39.76909 32.85833 8566 ft 287 kts 37°
2026-02-21 07:21 39.78557 32.87293 8258 ft 286 kts 33°
2026-02-21 07:22 39.80238 32.88660 7975 ft 284 kts 33°
2026-02-21 07:22 39.82003 32.89766 7609 ft 285 kts 10°
2026-02-21 07:22 39.83933 32.89598 7314 ft 278 kts 336°
2026-02-21 07:22 39.85588 32.88338 6978 ft 276 kts 320°
2026-02-21 07:23 39.87055 32.86750 6716 ft 273 kts 317°
2026-02-21 07:23 39.88475 32.85148 6533 ft 267 kts 317°
2026-02-21 07:23 39.89852 32.83594 6411 ft 257 kts 317°
2026-02-21 07:23 39.91253 32.82219 6232 ft 251 kts 334°
2026-02-21 07:24 39.92926 32.81707 6016 ft 248 kts
2026-02-21 07:24 39.94597 32.82155 5991 ft 248 kts 24°
2026-02-21 07:24 39.96082 32.83277 5982 ft 246 kts 39°
2026-02-21 07:24 39.97436 32.84658 5984 ft 248 kts 39°
2026-02-21 07:25 39.98823 32.86002 5976 ft 248 kts 38°
2026-02-21 07:25 40.00201 32.87304 5947 ft 248 kts 38°
2026-02-21 07:25 40.01578 32.88617 5678 ft 240 kts 38°
2026-02-21 07:25 40.02897 32.89877 5368 ft 229 kts 39°
2026-02-21 07:26 40.04155 32.91081 5052 ft 218 kts 38°
2026-02-21 07:26 40.05336 32.92201 4826 ft 201 kts 39°
2026-02-21 07:26 40.06406 32.93225 4529 ft 181 kts 38°
2026-02-21 07:26 40.07371 32.94149 4280 ft 167 kts 38°
2026-02-21 07:27 40.08295 32.95033 4048 ft 164 kts 37°
2026-02-21 07:27 40.09211 32.95907 3809 ft 162 kts 37°
2026-02-21 07:27 40.10113 32.96768 3591 ft 159 kts 36°
2026-02-21 07:27 40.11006 32.97623 3373 ft 160 kts 36°
2026-02-21 07:28 40.11903 32.98483 3162 ft 159 kts 35°
2026-02-21 07:28 40.12691 32.99222 3138 ft 108 kts 35°
2026-02-21 07:28 40.13109 32.99623 3137 ft 43 kts 37°
2026-02-21 07:28 40.13185 32.99704 3137 ft 0 kts 50°
2026-02-21 07:29 40.13189 32.99711 3137 ft 2 kts 52°
2026-02-21 07:29 40.13200 32.99729 3137 ft 3 kts 52°
2026-02-21 07:29 40.13217 32.99760 3136 ft 5 kts 64°
2026-02-21 07:29 40.13230 32.99803 3136 ft 6 kts 67°
2026-02-21 07:30 40.13247 32.99854 3136 ft 6 kts 67°
2026-02-21 07:30 40.13264 32.99906 3137 ft 6 kts 67°
2026-02-21 07:30 40.13281 32.99956 3137 ft 6 kts 65°
2026-02-21 07:30 40.13298 33.00004 3138 ft 6 kts 65°
2026-02-21 07:31 40.13313 33.00055 3138 ft 6 kts 69°
2026-02-21 07:31 40.13330 33.00111 3138 ft 7 kts 68°
2026-02-21 07:31 40.13352 33.00173 3137 ft 8 kts 63°
2026-02-21 07:31 40.13363 33.00242 3138 ft 8 kts 97°
2026-02-21 07:32 40.13338 33.00308 3138 ft 9 kts 135°
2026-02-21 07:32 40.13322 33.00324 3137 ft 9 kts 150°
2026-02-21 07:32 40.13302 33.00334 3137 ft 9 kts 165°
2026-02-21 07:33 40.13025 33.00190 3136 ft 12 kts 209°
2026-02-21 07:33 40.12953 33.00141 3136 ft 10 kts 206°
2026-02-21 07:33 40.12899 33.00094 3136 ft 8 kts 234°
2026-02-21 07:34 40.12864 33.00034 3136 ft 9 kts 223°
2026-02-21 07:34 40.12817 32.99979 3136 ft 9 kts 221°
2026-02-21 07:34 40.12766 32.99924 3137 ft 10 kts 217°
2026-02-21 07:34 40.12710 32.99870 3137 ft 10 kts 216°
2026-02-21 07:35 40.12651 32.99814 3137 ft 11 kts 216°
2026-02-21 07:35 40.12589 32.99754 3137 ft 11 kts 216°
2026-02-21 07:35 40.12523 32.99691 3137 ft 12 kts 216°
2026-02-21 07:35 40.12454 32.99624 3137 ft 13 kts 216°
2026-02-21 07:36 40.12381 32.99554 3136 ft 13 kts 216°
2026-02-21 07:36 40.12304 32.99480 3136 ft 14 kts 216°
2026-02-21 07:36 40.12225 32.99404 3136 ft 14 kts 216°
2026-02-21 07:36 40.12142 32.99326 3136 ft 15 kts 215°
2026-02-21 07:37 40.12056 32.99247 3136 ft 15 kts 215°
2026-02-21 07:37 40.11969 32.99165 3136 ft 16 kts 217°
2026-02-21 07:37 40.11881 32.99080 3137 ft 16 kts 217°
2026-02-21 07:37 40.11786 32.99074 3137 ft 15 kts 135°
2026-02-21 07:38 40.11717 32.99167 3137 ft 14 kts 115°
2026-02-21 07:38 40.11670 32.99225 3137 ft 8 kts 153°
2026-02-21 07:38 40.11666 32.99228 3137 ft 0 kts 153°